STARLINK-5663 (55347 NORAD) Tracking and Keplerian Element Data

This shows tracking and keplerian element data for the satellite.

Feedback or suggestion? Click here.




ElementValue
Catalog55347
NameSTARLINK-5663
Epoch Orbit1602
Epoch Day126.8569891
Epoch Year2023
RAAN179.5162
Inclination43.0006
Eccentricity0.0001746
Argument of Perigee279.2432
Mean Anonmoly80.8213
Mean Motion15.02534698
Decay Rate2.61E-06
L11 55347U 23013S 23126.85698910 .00000261 00000+0 34374-4 0 9996
L22 55347 43.0006 179.5162 0001746 279.2432 80.8213 15.02534698 16021



Live tracking and technical data element details for STARLINK-5663 (NORAD 55347). STARLINK-5663 can be tracked NOW for your location showing map with azimuth and elevation plus other details from your city location.







IsCatalogInMostPopularTable: catalog: 55347, numindb: -1

Insert: records affected: 1


GetName: 55347 STARLINK-5663

Hit Count: inserted at: Mon, 05 Jun 2023 19:38:26 GMT